Other Surface Observations
Issued by NWS Tucson, AZ

Home | Current Version | Previous Version | Text Only | Print | Product List | Glossary On
Versions: 1 2 3 4 5 6 7 8 9 10 11 12 13 14 15 16 17 18 19 20 21 22 23 24 25 26 27 28 29 30 31 32 33 34 35 36 37 38 39 40 41 42 43 44 45 46 47 48 49 50
413
SXUS55 KTWC 221415
OSOTWC

WEATHER ROUNDUP FOR SOUTHEAST ARIZONA
NATIONAL WEATHER SERVICE TUCSON AZ
715 AM MST FRI SEP 22 2017

AZZ504>506-514-221515-
LOCATION       SKY/WX    TMP DP  RH WIND       PRES   REMARKS
TUCSON         MOCLDY    75  39  27 SE3       29.85R
DAVIS-MONTHAN  CLOUDY    72  37  28 SE8       29.83R
CHILDRENS PARK N/A      N/A N/A  36 SE6               PIMA CO DEQ
ALVERNON/22ND  N/A       75 N/A N/A SE5               PIMA CO DEQ
CHERRY/GLENN   N/A      N/A N/A N/A N/A               PIMA CO DEQ
TANGERINE      N/A       75 N/A N/A SE8               PIMA CO DEQ
CONTL RANCH    N/A       77  46  33 SE5               PIMA CO DEQ
GRANT/1ST      N/A       75  44  33 SE4               PIMA CO DEQ
CRAYCROFT/22ND N/A       74  45  35 N/A               PIMA CO DEQ
GOLFLINKS/KOLB N/A       72  46  39 S3                PIMA CO DEQ
AJO/12TH       N/A       74  43  33 SE6               PIMA CO DEQ
FAIRGROUNDS    N/A       67 N/A N/A SE6               PIMA CO DEQ
SAGUARO        N/A       73  44  35 NW3               *SABINO CYN
SAN CARLOS     N/A       69  38  32 CALM              *SAN CARLOS
GREEN VALLEY   N/A       71  37  29 SW8               PIMA CO DEQ
HORSE CAMP CYN N/A       66  40  39 E4                *ARAVAIPA CYN
RINCON MTNS    N/A       51  33  49 S2G11             *NR MANNING CAMP
$$

AZZ509>511-221515-
LOCATION       SKY/WX    TMP DP  RH WIND       PRES   REMARKS
SAFFORD        MOSUNNY   70  41  34 CALM      29.84R
STRAY HORSE    N/A       52  39  62 NW3               *
TRAIL CABIN    N/A       60  38  44 S4                *N OF GRANVILLE
BLACK HILLS    NOT AVBL
DRY LAKE       N/A       54  36  51 S7G16             *NATANES MTNS
NOON CREEK     N/A       69  33  26 SW7G16            *PINALENO MTNS
COLUMBINE      N/A       46  31  56 SW10G23           *PINALENO MTNS
GUTHRIE        N/A       60  39  45 SW17G23           *SW OF GUTHRIE
$$

AZZ502-503-513-221515-
LOCATION       SKY/WX    TMP DP  RH WIND       PRES   REMARKS
NOGALES        CLEAR     65  40  39 SE5       29.92R
SELLS          N/A       70  48  45 S6G17             *
SASABE         N/A       59  49  69 W6                *ALTAR VLY
HOPKINS        N/A       54  34  46 SE9G16            *SANTA RITA MTNS
CARR CYN       N/A       65  44  47 SW3G10            *W OF HEREFORD
$$

AZZ507-508-512-221515-
LOCATION       SKY/WX    TMP DP  RH WIND       PRES   REMARKS
SIERRA VISTA   CLEAR     68  40  35 SE10      29.96S
DOUGLAS        MOSUNNY   64  47  53 S7        29.95R
EMPIRE MTNS    NOT AVBL
MULESHOE RANCH N/A       61  38  43 S3                *PRESERVE
HEADQUARTERS   N/A       69  38  32 W3G17             *CHIRICAHUA MTNS
$$

.............................NOTES.............................
THIS IS AN AUTOMATED COLLECTIVE WITH MINIMAL QUALITY CONTROL.
PIMA CO DEQ SITES HAVE NONSTANDARD WIND SENSOR HEIGHTS.
PIMA CO DEQ SITES DO NOT REPORT WIND GUSTS.
* INDICATES WIND SENSORS LOCATED AT 20 FEET INSTEAD OF 33 FEET.
..............................KEY..............................
SKY/WX - SKY CONDITION/WEATHER
TMP    - TEMPERATURE IN FAHRENHEIT
DP     - DEWPOINT IN FAHRENHEIT
RH     - RELATIVE HUMIDITY IN PERCENT
WIND   - DIRECTION AND SPEED IN MILES PER HOUR (MPH)
VRB    - VARIABLE WIND DIRECTION
PRES   - MEAN SEA LEVEL PRESSURE IN INCHES OF MERCURY
         F - FALLING PRESSURE   R - RISING PRESSURE
         S - STEADY PRESSURE
VSB    - VISIBILITY IN MILES
HX     - HEAT INDEX IN FAHRENHEIT
WCI    - WIND CHILL INDEX IN FAHRENHEIT
N/A    - NOT AVAILABLE
AFB    - AIR FORCE BASE
         DAVIS-MONTHAN IS DAVIS-MONTHAN AIR FORCE BASE
CYN    - CANYON
MTNS   - MOUNTAINS
NCA    - NATIONAL CONSERVATION AREA
NR     - NEAR
VLY    - VALLEY
CONTL  - CONTINENTAL
PIMA CO DEQ - PIMA COUNTY DEPT OF ENVIRONMENTAL QUALITY



USA.gov is the U.S. government's official web portal to all federal, state and local government web resources and services.